Location: Empfertshausen
(50.6636°N, 10.0989°E)
Time: 21:32:48
(UTC+00:00)

Daily predictions for brighter satellites

Satellite Brightness Start Highest point End
(mag) Time Altitude Azimuth Time Altitude Azimuth Time Altitude Azimuth
ATLAS 3B R/B 4.0 16:13:26 10° WNW 16:20:23 33° N 16:27:21 10° NE
Cosmos 2181 Rocket 4.2 16:16:28 10° SSE 16:22:26 52° E 16:28:30 10° NNE
Cosmos 1331 Rocket 4.0 16:17:27 10° SSW 16:22:33 72° ESE 16:27:43 10° NNE
Cosmos 2366 rocket 4.1 16:16:44 10° N 16:23:08 86° ENE 16:29:30 10° S
Cosmos 1515 Rocket 3.7 16:19:53 10° S 16:24:12 54° E 16:28:32 10° NNE
CBERS-1 4.2 16:19:51 10° SSE 16:24:57 83° WSW 16:30:04 10° NNW
Meteor 2-15 4.5 16:21:03 10° N 16:27:08 61° ENE 16:33:09 10° SSE
NOSS 3-4 (A) 3.2 16:21:55 10° SW 16:27:13 87° SE 16:33:11 10° NE
NOSS 3-4 (C) 3.2 16:22:04 10° SW 16:27:24 87° SE 16:33:24 10° NE
IRS-1C 4.3 16:23:15 10° SE 16:28:25 54° ENE 16:33:37 10° N
Cosmos 1697 Rocket 3.2 16:24:34 10° NNW 16:29:49 37° NE 16:35:03 10° ESE
IGS 5A 4.1 16:27:31 10° S 16:31:26 58° W 16:35:23 10° NNW
Meteor 1-23 Rocket 4.2 16:27:12 10° S 16:32:49 76° E 16:38:26 10° NNE
Landsat 7 3.7 16:29:19 10° SSE 16:33:57 73° ENE 16:38:36 10° N
Cosmos 2218 Rocket 4.2 16:29:52 10° N 16:36:19 84° W 16:42:40 10° S
Cosmos 1833 Rocket 3.7 16:33:03 10° SSE 16:37:37 26° ESE 16:42:13 10° NE
Cosmos 1302 Rocket 4.4 16:33:23 10° S 16:38:22 45° ESE 16:43:23 10° NE
NOSS 3-1 (A) 4.4 16:32:28 10° NW 16:38:25 38° NNE 16:45:46 10° E
COSMOS 2455 3.3 16:33:13 10° NNW 16:38:54 40° NE 16:44:33 10° ESE
NOSS 2-1 (D) 3.1 16:38:43 10° NW 16:41:56 56° NE 16:46:00 10° ESE
Cosmos 1953 3.2 16:38:30 10° NNW 16:42:07 50° W 16:45:41 10° S
SMAP 3.2 16:38:12 10° SSE 16:42:51 84° WSW 16:47:34 10° NNW
SL-16 R/B 4.1 16:41:55 10° N 16:44:22 13° NNE 16:46:48 10° NE
Cosmos 1470 Rocket 4.5 16:40:20 10° NNW 16:44:34 53° W 16:48:48 10° S
Cosmos 1603 3.9 16:40:21 10° SW 16:45:59 76° WNW 16:51:38 10° NNE
Cosmos 1110 Rocket 4.2 16:40:55 10° SSW 16:46:06 73° WNW 16:51:18 10° NNE
Cosmos 1733 Rocket 4.0 16:43:15 10° NNE 16:46:56 25° ENE 16:50:33 10° SE
SL-16 R/B 2.9 16:42:02 10° NNE 16:48:11 71° WNW 16:54:18 10° SSW
NOSS 3-1 (C) 4.0 16:43:18 10° NW 16:49:52 60° NE 16:58:09 10° ESE
Meteor 1-21 4.3 16:44:41 10° SSW 16:50:18 88° WNW 16:55:57 10° NNE
Cosmos 1933 Rocket 3.5 16:48:19 10° N 16:52:43 89° ENE 16:57:04 10° S
CZ-2D R/B 2.6 16:52:34 10° SSE 16:55:40 78° ENE 16:58:49 10° N
BREEZE-M DEB (TANK) 3.3 16:54:14 10° SW 16:57:00 46° SE 17:03:38 13° ENE
Nadezhda 3 Rocket 4.1 16:52:52 10° SSE 16:58:46 53° E 17:04:45 10° NNE
CZ-2D R/B 3.9 16:56:20 10° SE 16:59:45 32° ENE 17:03:11 10° N
Cosmos 1992 Rocket 4.5 16:55:16 10° S 17:00:02 39° ESE 17:04:50 10° NE
AQUARIUS 4.1 16:57:04 10° SSE 17:01:29 86° ENE 17:05:56 10° NNW
Okean 2 3.1 16:59:43 10° S 17:03:34 87° E 17:07:25 10° N
Cosmos 1452 Rocket 3.8 17:00:23 10° SSW 17:05:37 71° WNW 17:10:55 10° NNE
Thor Agena Rocket 4.3 17:02:34 10° S 17:07:28 55° WSW 17:12:26 10° NNW
Meteor 1-28 Rocket 4.3 17:05:55 10° N 17:09:00 37° WNW 17:12:03 10° SW
IRS-P3 4.1 17:06:10 10° SSE 17:11:28 84° ENE 17:16:50 10° NNW
Resurs 01 Rocket 2.6 17:08:23 10° ESE 17:11:57 25° ENE 17:15:31 10° N
SPOT 1/Viking Rocket 3.5 17:07:54 10° SSE 17:13:02 78° ENE 17:18:11 10° NNW
Cosmos 2228 Rocket 4.2 17:10:01 10° SE 17:13:29 23° E 17:15:25 17° NE
NOAA 6 4.4 17:11:06 10° SE 17:15:50 40° ENE 17:20:37 10° N
Cosmos 1869 Rocket 3.8 17:15:14 10° NNW 17:19:37 71° W 17:23:55 10° S
Meteor 2-8 Rocket 4.4 17:14:17 10° N 17:20:29 75° ENE 17:26:39 10° SSE
Cosmos 1340 Rocket 3.9 17:18:30 10° NNW 17:22:11 45° W 17:25:51 10° S
RESURS DK-1 3.1 17:21:11 10° SW 17:25:03 48° NW 17:28:44 11° NNE
BlueWalker 3 3.8 17:23:46 10° SSE 17:25:42 14° SE 17:25:57 14° SE
USA 276 1.4 17:24:08 10° W 17:26:28 74° S 17:27:04 45° ESE
SJ-7 4.3 17:22:51 10° SSE 17:26:30 50° ENE 17:30:11 10° N
SL-16 R/B 4.4 17:28:02 10° WNW 17:31:16 15° NNW 17:34:29 10° N
Cosmos 2322 Rocket 3.9 17:28:37 10° N 17:31:36 14° NNE 17:32:27 14° NE
USA 267 3.5 17:28:12 20° E 17:32:41 55° N 17:39:01 10° WNW
ATLAS 5 CENTAUR R/B 3.3 17:30:59 10° NW 17:32:49 14° NNW 17:34:23 11° NNE
Spot 4 Rocket 3.9 17:29:24 10° SSE 17:34:28 71° ENE 17:39:35 10° NNW
Resurs 1-3 3.4 17:30:40 10° SSE 17:34:58 81° ENE 17:39:18 10° NNW
Radarsat Rocket 3.8 17:29:41 10° SSE 17:35:40 72° ENE 17:41:29 10° NNW
Okean 1-7 3.2 17:34:12 10° SSE 17:38:04 41° E 17:39:53 26° NE
Cosmos 1777 Rocket 4.2 17:33:03 10° NNW 17:38:04 45° ENE 17:42:03 16° SE
USA 305 3.0 17:36:10 10° SW 17:39:49 47° SE 17:40:58 36° E
Okean 3 4.0 17:36:53 10° SSW 17:40:51 56° WNW 17:44:50 10° N
Cosmos 2333 Rocket 3.7 17:37:48 10° NNW 17:41:47 19° NNE 17:42:20 19° NE
Cosmos 1605 Rocket 4.1 17:37:11 10° N 17:43:29 55° ENE 17:49:40 10° SSE
ISS -3.8 17:41:21 10° W 17:44:42 73° N 17:45:21 53° ENE
Cosmos 909 Rocket 4.4 17:38:22 10° SSW 17:45:41 56° ESE 17:49:38 24° NE
BREEZE-M (TANK) 1.8 17:44:57 10° WSW 17:47:02 63° SSE 17:47:18 57° SE
USA 59 Rocket 1.3 17:44:06 10° WNW 17:47:21 37° SW 17:51:33 10° SSE
Cosmos 1862 Rocket 3.5 17:43:08 10° S 17:47:29 61° E 17:51:07 14° NNE
YAOGAN 1 2.7 17:47:13 10° S 17:51:27 72° WSW 17:55:44 10° NNW
ARIANE 5 R/B 4.3 17:47:01 10° SSW 17:51:44 34° W 17:56:27 10° NNW
Cosmos 1339 Rocket 4.4 17:45:41 10° S 17:51:50 88° W 17:57:58 10° N
Cosmos 1980 Rocket 2.1 17:46:55 10° NNW 17:52:30 63° ENE 17:56:48 17° SE
COSMO-SKYMED 1 2.3 17:49:45 18° NNE 17:52:42 71° ESE 17:56:48 10° S
SWAS 4.3 17:52:17 10° NNW 17:56:20 78° WSW 17:59:42 14° SSE
Cosmos 1908 Rocket 4.5 17:52:37 10° N 17:55:22 30° NNE 17:55:22 30° NNE
Cosmos 2369 4.0 17:52:47 10° NNW 17:58:13 44° NE 17:59:38 37° E
CSL-04 Rocket 4.4 17:59:46 32° NE 17:59:46 32° NE 18:03:56 10° N
Cosmos 1707 Rocket 3.3 17:58:06 10° S 18:02:23 82° E 18:05:24 19° NNE
DMSP B5D1-3 4.5 18:04:01 29° NE 18:06:29 56° E 18:11:27 10° S
SKYMED 2 4.2 18:02:23 10° N 18:06:39 55° WNW 18:10:54 10° SSW
Cosmos 1934 Rocket 4.3 18:01:58 10° NNW 18:08:04 66° W 18:14:15 10° S
Cosmos 2219 Rocket 4.1 18:06:36 10° N 18:09:08 14° NNE 18:09:08 14° NNE
IRAS Rocket 4.2 18:07:37 10° SSE 18:13:09 89° ENE 18:18:47 10° NNW
ATLAS 3B R/B 3.8 18:06:12 10° NW 18:13:21 35° NNE 18:15:46 29° NE
Cosmos 1697 Rocket 3.6 18:08:30 10° NW 18:13:56 49° WSW 18:19:20 10° S
Aureole 1 Rocket 4.5 18:14:03 10° NNW 18:20:05 37° NE 18:20:05 37° NE
Cosmos 1833 Rocket 3.1 18:15:32 10° SW 18:21:07 63° NW 18:24:41 23° NNE
Cosmos 2360 Rocket 3.8 18:18:09 10° NNW 18:21:10 20° NNE 18:21:10 20° NNE
Cosmos 1503 Rocket 3.8 18:17:29 10° NNW 18:22:45 81° ENE 18:24:39 41° SSE
Cosmos 2237 4.3 18:18:42 10° NNW 18:24:15 51° NE 18:24:17 51° NE
PSLV R/B 4.5 18:20:38 10° S 18:24:38 46° W 18:28:40 10° NNW
Cosmos 1733 Rocket 4.4 18:20:39 10° NNW 18:24:43 39° W 18:28:44 10° SSW
COSMOS 2455 3.5 18:19:12 10° NW 18:25:04 55° WSW 18:30:54 10° SSE
Cosmos 2082 Rocket 3.2 18:20:30 10° S 18:23:38 29° SSE 18:23:38 29° SSE
CARTOSAT-1 4.3 18:25:10 10° S 18:29:15 50° W 18:33:23 10° NNW
NOSS 3-1 (A) 3.9 18:23:05 10° NW 18:30:01 90° NNE 18:34:56 29° SE
SL-16 R/B 3.1 18:25:05 10° NNW 18:29:06 32° NNE 18:29:06 32° NNE
USA 215 3.8 18:40:18 40° SE 18:40:18 40° SE 18:45:59 10° SSW
Meteor 1-24 Rocket 3.7 18:34:32 10° S 18:40:16 87° ESE 18:44:05 24° NNE
Cosmos 1153 Rocket 4.3 18:34:24 10° N 18:40:47 81° E 18:45:14 20° SSE
BREEZE-M DEB (TANK) 3.0 18:38:12 10° WNW 18:42:28 86° SSW 18:42:48 77° ESE
Cosmos 2100 Rocket 4.2 18:40:00 10° N 18:45:13 52° NE 18:45:13 52° NE
Resurs 01 Rocket 2.7 18:43:56 10° S 18:48:06 44° W 18:52:18 10° NNW
Cosmos 2228 Rocket 4.1 18:47:02 10° SSW 18:51:18 44° WNW 18:52:53 31° NNW
Meteor 2-5 Rocket 3.7 18:51:08 10° SSW 18:56:45 80° WNW 18:57:47 61° N
USA 229 DEB 4.3 18:54:01 10° NW 19:00:53 47° NNE 19:00:53 47° NNE
USA 229 4.3 18:54:06 10° NW 19:00:58 46° NNE 19:00:58 46° NNE
Cosmos 1354 Rocket 4.2 18:55:48 10° NNW 19:00:32 67° WNW 19:00:32 67° WNW
Cosmos 2173 Rocket 4.3 19:07:45 10° N 19:12:41 56° N 19:12:41 56° N
USA 267 3.1 19:15:32 89° W 19:15:32 89° W 19:22:04 10° WNW
Cosmos 2322 Rocket 3.8 19:11:50 10° NNW 19:14:14 24° N 19:14:14 24° N
ISS -0.2 19:18:10 10° WNW 19:18:17 11° WNW 19:18:17 11° WNW
Cosmos 2333 Rocket 3.7 19:21:33 10° NNW 19:24:21 29° NNW 19:24:21 29° NNW
Cosmos 1980 Rocket 4.1 19:31:32 10° NW 19:36:03 26° WSW 19:38:40 18° SW
Cosmos 2219 Rocket 4.5 19:49:44 10° NNW 19:50:50 16° NNW 19:50:50 16° NNW
ATLAS 3B R/B 3.7 19:57:34 10° NW 20:03:01 46° NNW 20:03:01 46° NNW
Cosmos 2360 Rocket 4.4 20:01:38 10° NNW 20:02:54 17° NNW 20:02:54 17° NNW
Cosmos 2082 Rocket 4.5 20:04:18 10° WSW 20:05:32 17° WSW 20:05:32 17° WSW
SL-16 R/B 4.3 20:09:06 10° NW 20:10:58 21° NW 20:10:58 21° NW
